www.pogodaiklimat.ru

Погода и климат >> Архив погоды >> Россия >> Красноярский край >> Шумиха


ПОГОДА в Шумихе

  • Прогноз погоды в Шумихе
  • Монитор погоды в Шумихе

АРХИВ ПОГОДЫ в Шумихе

Время (UTC), дата Ветер
(напр.,м/с)
 
Видим.   Явления Облачность Т
(С)
Тd
(С)
f
(%)
Тe
(С)
Тes
(С)
Комфортность P
(гПа)
Po
(гПа)
Тmin
(С)
Tmax
(С)
R
(мм)
R24
(мм)
S
(см)
09 12.05 СЗ 2
{10}
50 км {ливн. осадки} 6/6 1000 м
[Cu Sc]
+6.8 -10.0 29 +6 +9 1010.8 977.6
12 12.05 С 1
{11}
10 км слаб. крупа 8/8 1000 м
[Cb cap Ci fib]
+4.7 -5.8 46 +4 +4 1012.6 979.2 +8.6 1
15 12.05 штиль 0 20 км 4/4 1000 м
[Sc]
+0.4 -4.3 71 -0 -0 1014.6 980.6
18 12.05 штиль 0 20 км 4/3 1000 м
[Sc Ci fib]
-2.3 -4.4 85 -3 -3 1015.0 980.6
21 12.05 штиль 0 20 км 9/9 1000 м
[Sc]
-2.7 -4.5 87 -4 -4 1014.1 979.7
00 13.05 ЮЗ 1 50 км 10/10 1000 м
[Sc]
-1.2 -3.5 84 -3 -3 1013.8 979.6 -3.2
03 13.05 СВ 1 50 км 10/10 1000 м
[Cb cap]
+2.8 -6.0 52 +2 +2 1012.7 979.0
06 13.05 В 2 50 км {ливн. осадки} 9/9 1000 м
[Cb cap]
+3.9 -2.5 63 +1 +3 1012.3 978.8
09 13.05 СВ 1 50 км в посл. час ливневой снег 9/9 1000 м
[Cb cap]
+2.8 -0.6 78 +1 +2 1012.4 978.7
12 13.05 ЮЗ 2 50 км {ливн. осадки} 8/8 1000 м
[Cb cap Ci fib]
+2.1 -1.1 79 -1 -1 1012.9 979.1 +4.1 3
15 13.05 штиль 0 20 км 8/8 1000 м
[Sc]
-0.6 -2.3 88 -2 -2 1014.3 980.1
18 13.05 З 1 20 км ясно -3.0 -4.0 93 -5 -5 1015.0 980.5
21 13.05 ЮЗ 1 20 км в посл. час ливневой снег 9/9 1000 м
[Cb cap]
-2.3 -3.5 91 -5 -5 1015.2 980.8
00 14.05 Ю 2 50 км {ливн. осадки} 9/6 1000 м
[Cb cap Ci fib]
-1.1 -2.9 88 -5 -4 1015.9 981.6 -3.2 0.0 <0.5
03 14.05 З 1 50 км 8/8 1000 м
[Cb cap]
+4.0 -1.6 67 +3 +5 1015.2 981.6
06 14.05 ЮВ 2 50 км {ливн. осадки} 8/8 1000 м
[Cb cap]
+5.1 -3.1 55 +3 +6 1014.9 981.4
09 14.05 Ю 2 50 км 8/8 1000 м
[Cb cap]
+5.0 -3.6 54 +3 +5 1013.7 980.2
12 14.05 ЮЗ 2 50 км 8/4 1000 м
[Cu med, cong Ac trans Ci fib]
+3.4 -1.3 71 +1 +1 1014.4 980.7 +7.3 0.0
15 14.05 штиль 0 20 км 3/0
[Ci fib]
-0.2 -2.2 86 -1 -1 1014.4 980.3
18 14.05 штиль 0 4000 м туман на расстоянии 8/8 600 м
[St]
-1.3 -2.1 94 -3 -3 1013.4 979.1
21 14.05 штиль 0 4000 м туман на расстоянии 10/10 1000 м
[St]
-1.8 -2.3 96 -3 -3 1012.0 977.8
00 15.05 штиль 0 4000 м туман на расстоянии 8/8 600 м
[St]
-1.8 -2.3 96 -3 -3 1011.4 977.2 -2.4
03 15.05 СВ 2 50 км 6/5 1000 м
[Cu med, cong Ci fib]
+5.9 -2.5 55 +4 +9 1009.9 976.7
06 15.05 З 2 50 км в посл. час ливневой снег 8/8 1000 м
[Cb cap Ci fib]
+7.7 -5.1 40 +6 +9 1009.5 976.5
09 15.05 СЗ 2 50 км {ливн. осадки} 9/8 1000 м
[Cb cap Ac trans Ci fib]
+8.4 -7.9 31 +7 +9 1009.9 976.9
12 15.05 Ю 1 50 км {ливн. осадки} 9/3 1000 м
[Cb cap Ac trans Ci fib]
+6.7 -4.9 43 +6 +7 1011.4 978.2 +9.9 0.0
15 15.05 штиль 0 20 км 9/4 1000 м
[Cu Sc Ci fib]
+4.0 -4.7 53 +4 +4 1014.2 980.6
18 15.05 З 1 20 км 9/5 1000 м
[Sc Ac trans Ci fib]
+2.0 -3.1 69 +1 +1 1015.8 981.9
21 15.05 ЮЗ 2 20 км 9/8 1000 м
[Sc Ac lent Ci fib]
+0.2 -2.9 80 -3 -3 1016.6 982.5
00 16.05 ЮЗ 2 50 км 5/0 2000 м
[Ac trans Ci fib]
+2.1 -2.4 72 -1 +1 1017.7 983.8 -1.0
03 16.05 Ю 1 50 км 9/9 1000 м
[Sc]
+6.6 -3.3 49 +6 +7 1017.7 984.3
06 16.05 СЗ 3
{10}
50 км 9/9 1000 м
[Cb cap]
+8.6 -3.7 42 +7 +8 1017.2 984.0
09 16.05 ЮЗ 4 50 км 8/8 1000 м
[Cb cap]
+11.5 -8.4 24 +10 +11 1016.4 983.6
12 16.05 ЮЗ 1 50 км 8/6 1000 м
[Cb cap Ci fib]
+9.8 -9.1 25 +10 +11 1017.5 984.5 +12.1
15 16.05 С 1 20 км 8/4 1000 м
[Cu med, cong Ci fib]
+4.6 -7.0 43 +4 +4 1019.5 985.8
18 16.05 штиль 0 20 км 8/8 1000 м
[Sc]
+2.3 -5.2 58 +2 +2 1020.1 986.1
21 16.05 ЮЗ 1 20 км 8/3 1000 м
[Sc Ci fib]
-0.7 -5.8 68 -2 -2 1020.9 986.5
00 17.05 ЮЗ 2 50 км 8/0
[Ci fib]
+1.6 -5.3 60 -1 +1 1021.9 987.7 -1.5
03 17.05 Ю 1 50 км 8/8 1000 м
[Cu med, cong]
+9.5 -6.3 32 +10 +12 1020.4 987.2
06 17.05 СЗ 2 50 км 9/8 1000 м
[Cu med, cong Ci fib]
+10.1 -7.8 28 +9 +12 1020.1 987.0
09 17.05 ЮЗ 2
{11}
50 км 8/6 1000 м
[Cu med, cong Ci fib]
+11.8 -10.4 20 +11 +15 1019.3 986.4
12 17.05 Ю 1 50 км 9/9 1000 м
[]
+9.2 -6.7 32 +9 +10 1020.4 987.2 +12.0
15 17.05 З 1 20 км 8/3 1000 м
[Sc Ci fib]
+5.1 -5.5 46 +5 +5 1022.4 988.6
18 17.05 З 1 20 км 9/6 1000 м
[Sc Ci fib]
+2.9 -4.2 60 +2 +2 1023.7 989.6
21 17.05 штиль 0 20 км 8/3 1000 м
[Sc Ci fib]
+0.3 -4.1 72 -1 -1 1024.1 989.8
00 18.05 Ю 1 50 км 8/3 1000 м
[Sc Ci fib]
+2.8 -2.6 68 +2 +3 1024.5 990.4 -0.4
03 18.05 Ю 1 50 км 9/1 1000 м
[Cu med, cong Ci fib]
+10.1 -3.4 38 +10 +19 1022.7 989.5
06 18.05 Ю 2 50 км 9/8 1000 м
[Cu Sc As trans Ci fib]
+11.6 -6.4 28 +11 +13 1020.7 987.7
09 18.05 Ю 1 50 км 9/8 1000 м
[Cu Sc Ci fib]
+12.8 -6.0 26 +13 +15 1018.3 985.6
12 18.05 В 1 50 км 10/1 1000 м
[Sc As trans]
+12.4 -7.0 25 +13 +14 1017.2 984.5 +12.8
15 18.05 СЗ 1 20 км 8/0
[Ac As Ci fib]
+7.6 -7.6 33 +8 +8 1016.8 983.5
18 18.05 штиль 0 20 км 10/0
[Cs]
+3.5 -4.8 55 +3 +3 1016.8 983.0
21 18.05 штиль 0 20 км 8/0
[Ac As Ci fib]
+0.5 -4.8 68 -0 -0 1016.4 982.3
00 19.05 штиль 0 50 км 9/0 2000 м
[As trans Cs]
+2.4 -3.3 66 +2 +4 1015.5 981.6 +0.1
03 19.05 В 1 50 км 8/0
[Ac trans Ci fib]
+11.7 -3.9 33 +12 +20 1011.9 979.3
06 19.05 Ю 2 50 км 9/5 1000 м
[Sc Ac trans Ci fib]
+19.3 -7.9 15 +20 +24 1009.0 977.3

 

Местоположение метеостанции Шумиха (Красноярский край, Россия): широта 55.95 долгота 92.30 высота над уровнем моря 275 м.

В архиве по умолчанию представлена погода в Шумихе за последнюю неделю. Архивные данные за месяц целиком и за предыдущие месяцы, начиная с января 2011 года, Вы можете получить, выбрав интересующий диапазон дат из раскрывающегося списка и нажав кнопку "Ввод!".


*Определитесь, кто Вы:
робот инопланетянин человек

Внимание! Время в таблицах - всемирное. Для получения местного времени необходимо прибавить поправку, которая равна 7 ч.

Смотрите также архив погоды в соседних городах и на ближайших метеорологических станциях:

Погода в Каче (Красноярский край, Россия) (20 км)
Погода в Роевом Ручье (Красноярский край, Россия) (27 км)
Погода в Емельяново (Красноярский край, Россия) (27 км)
Погода в Красноярске (Красноярский край, Россия) (29 км)
Погода в Минино (Красноярский край, Россия) (30 км)
Погода в Кемчуге (Красноярский край, Россия) (43 км)
Погода в Погорельском Бору (Красноярский край, Россия) (62 км)
Погода в Балахте (Красноярский край, Россия) (75 км)
Погода в Железногорске (Красноярский край, Россия) (83 км)
Погода в Сухобузимском (Красноярский край, Россия) (86 км)

Пояснения к столбцам:

Ветер - указаны скорость ветра в м/с - средняя за 10 мин, порывы в срок и между сроками (в фигурных скобках) и направление, откуда дует ветер: С - северный, СВ - северо-восточный, В - восточный, ЮВ - юго-восточный, Ю - южный, ЮЗ - юго-западный, З - западный, СЗ - северо-западный.
Видимость - горизонтальная дальность видимости в метрах или километрах. При видимости от 1 до 10 км при отсутствии осадков обычно наблюдается дымка, при ухудшении видимости до 1 км и менее - туман. В сухую погоду видимость может ухудшаться дымом, пылью или мглою.
Явления - указаны атмосферные явления, наблюдавшиеся в срок или в последний час перед сроком; фигурными скобками обозначены явления, наблюдавшиеся между сроками (за 1-3 часа до срока); квадратными скобками обозначены град или гололедные отложения с указанием их диаметра в мм.
Облачность - указаны через наклонную черту общая и нижняя облачность в баллах и высота нижней границы облаков в метрах; квадратными скобками обозначены формы облаков: Ci - перистые, Cs - перисто-слоистые, Cc - перисто-кучевые, Ac - высококучевые, As - высокослоистые, Sc - слоисто-кучевые, Ns - слоисто-дождевые, Cu - кучевые, Cb - кучево-дождевые. Подробнее классификацию облаков см. в Атласе облаков (PDF).
T - Температура воздуха - температура, измеренная на высоте 2 м над землей.
Td - Температура точки росы - температура, при понижении до которой содержащийся в воздухе водяной пар достигнет насыщения.
f - Относительная влажность воздуха - влажноcть воздуха, измеренная на высоте 2 м над землей.
Te - Эффективная температура - температура, которую ощущает одетый по сезону человек в тени. Характеристика душности погоды. При расчете учитывается влияние влажности воздуха и скорости ветра на теплоощущения человека.
Tes - Эффективная температура на солнце - температура, которую ощущает человек, с поправкой на солнечный нагрев. Характеристика знойности погоды. Зависит от высоты солнца над горизонтом, облачности и скорости ветра. Ночью, в пасмурную погоду, а также при ветре 12 м/с и более поправка равна нулю.
P - Атмосферное давление - приведенное к уровню моря атмосферное давление.
Po - Атмосферное давление - измеренное на уровне метеостанции атмосферное давление.
Tmin - Минимальная температура - минимум температуры воздуха на высоте 2 м над землей.
Tmax - Максимальная температура - максимум температуры воздуха на высоте 2 м над землей.
R - Количество осадков - Количество выпавших осадков за период времени, мм. При наведении курсора мыши на число - период времени, за который выпало указанное количество осадков.
R24 - Количество осадков - Количество выпавших осадков за 24 часа, мм.
S - Снежный покров - Высота снежного покрова, см. При наведении курсора мыши на число - состояние снежного покрова и степень покрытия местности в баллах.